User: anonymous   Login
Location: Lucerne Valley
(34.4439°N, 116.9669°E)
Time: 12:49:57
(UTC-07:00)
Language:

N. Korean satellite - Orbit

View from above orbital plane
View from above orbital plane
View from above satellite
View from above satellite

Ground track
Ground track

The orbit data is extracted from the following two-line orbital elements,

1 39026U 12072A   17292.95431554 +.00001741 +00000-0 +68939-4 0  9991
2 39026 097.2195 306.5375 0041950 094.9359 265.6671 15.25932859268954
Epoch (UTC): 19 October 2017 22:54:12
Eccentricity: 0.0041950
inclination: 97.2195°
perigee height: 459 km
apogee height: 517 km
right ascension of ascending node: 306.5375°
argument of perigee: 94.9359°
revolutions per day: 15.25932859
mean anomaly at epoch: 265.6671°
orbit number at epoch: 26895

The dashed part of the orbit path shows where the satellite is in the earth's shadow,  

DLR